QPF
0.00 0.00 0.00 0.00 0.00 0.00 0.00 0.00 0.00 0.00 0.00 0.00 0.00 0.00 0.00 0.00 0.00 0.00 0.00 0.00 0.00 0.00 0.00 0.00 0.00 0.00 0.01 0.04 0.07 0.07 0.05 0.04 0.03 0.02 0.02 0.02 0.03 0.04 0.06 0.07 0.09 0.05 0.04 0.05
0.00 0.00 0.00 0.00 0.00 0.00 0.00 0.00 0.00 0.00 0.00 0.00 0.00 0.00 0.00 0.00 0.00 0.00 0.00 0.00 0.00 0.00 0.00 0.00 0.00 0.01 0.01 0.01 0.02 0.04 0.05 0.05 0.04 0.03 0.03 0.02 0.02 0.02 0.03 0.04 0.05 0.04 0.05 0.06
0.00 0.00 0.00 0.00 0.00 0.00 0.00 0.00 0.00 0.00 0.00 0.00 0.00 0.00 0.00 0.00 0.00 0.00 0.00 0.00 0.00 0.00 0.00 0.00 0.00 0.00 0.01 0.01 0.00 0.01 0.01 0.01 0.02 0.03 0.03 0.03 0.03 0.03 0.03 0.04 0.06 0.05 0.05 0.05
0.00 0.00 0.00 0.00 0.00 0.00 0.00 0.00 0.00 0.00 0.00 0.00 0.00 0.01 0.00 0.00 0.00 0.00 0.00 0.00 0.00 0.00 0.00 0.00 0.00 0.00 0.01 0.00 0.00 0.00 0.00 0.00 0.01 0.01 0.03 0.03 0.04 0.04 0.04 0.06 0.09 0.08 0.08 0.09
0.00 0.00 0.00 0.00 0.00 0.00 0.00 0.00 0.00 0.00 0.00 0.00 0.00 0.00 0.00 0.00 0.00 0.00 0.00 0.00 0.00 0.00 0.00 0.00 0.00 0.00 0.00 0.00 0.00 0.00 0.00 0.01 0.01 0.01 0.02 0.02 0.02 0.03 0.03 0.05 0.08 0.09 0.11 0.10
0.00 0.00 0.00 0.00 0.00 0.00 0.00 0.00 0.00 0.00 0.00 0.00 0.00 0.00 0.00 0.00 0.00 0.00 0.00 0.00 0.00 0.00 0.00 0.00 0.00 0.00 0.00 0.00 0.00 0.00 0.00 0.01 0.01 0.01 0.01 0.02 0.02 0.02 0.03 0.03 0.04 0.06 0.06 0.05
0.00 0.00 0.00 0.00 0.00 0.00 0.00 0.00 0.00 0.00 0.01 0.00 0.00 0.00 0.00 0.00 0.00 0.00 0.00 0.00 0.00 0.00 0.00 0.00 0.00 0.00 0.00 0.00 0.00 0.00 0.01 0.02 0.02 0.01 0.01 0.01 0.01 0.02 0.03 0.03 0.03 0.03 0.02 0.03
0.00 0.00 0.00 0.00 0.00 0.00 0.00 0.00 0.00 0.00 0.00 0.00 0.00 0.00 0.00 0.00 0.00 0.00 0.00 0.00 0.00 0.00 0.00 0.00 0.00 0.00 0.00 0.01 0.01 0.01 0.01 0.01 0.01 0.01 0.02 0.02 0.02 0.02 0.02 0.03 0.03 0.03 0.02 0.02
0.00 0.00 0.00 0.00 0.00 0.00 0.00 0.00 0.00 0.00 0.00 0.00 0.00 0.00 0.00 0.00 0.00 0.00 0.00 0.00 0.00 0.00 0.00 0.00 0.00 0.00 0.00 0.01 0.01 0.01 0.00 0.00 0.00 0.01 0.03 0.06 0.04 0.03 0.02 0.02 0.03 0.03 0.03 0.03
0.00 0.00 0.00 0.00 0.00 0.00 0.00 0.00 0.00 0.00 0.00 0.00 0.00 0.00 0.00 0.00 0.00 0.00 0.00 0.00 0.00 0.00 0.00 0.00 0.00 0.00 0.00 0.00 0.00 0.00 0.01 0.01 0.01 0.02 0.03 0.03 0.02 0.01 0.02 0.02 0.02 0.03 0.03 0.03
0.00 0.00 0.00 0.00 0.00 0.00 0.00 0.00 0.00 0.00 0.00 0.00 0.00 0.00 0.00 0.00 0.00 0.00 0.00 0.00 0.00 0.00 0.00 0.00 0.00 0.00 0.00 0.00 0.01 0.01 0.01 0.00 0.01 0.01 0.02 0.01 0.01 0.01 0.02 0.04 0.03 0.04 0.05 0.05
0.00 0.00 0.00 0.00 0.00 0.00 0.00 0.00 0.00 0.00 0.00 0.00 0.00 0.00 0.00 0.00 0.00 0.00 0.00 0.00 0.00 0.00 0.00 0.00 0.00 0.00 0.00 0.00 0.00 0.00 0.00 0.00 0.00 0.01 0.01 0.01 0.03 0.05 0.05 0.06 0.07 0.08 0.06 0.04
0.00 0.00 0.00 0.00 0.00 0.00 0.00 0.00 0.00 0.00 0.00 0.00 0.00 0.00 0.00 0.00 0.00 0.00 0.00 0.00 0.00 0.00 0.00 0.00 0.00 0.00 0.00 0.00 0.00 0.00 0.00 0.00 0.01 0.02 0.04 0.05 0.07 0.08 0.06 0.04 0.03 0.03 0.02 0.01
0.00 0.00 0.00 0.00 0.00 0.00 0.00 0.00 0.00 0.00 0.00 0.00 0.00 0.00 0.00 0.00 0.00 0.00 0.00 0.00 0.00 0.00 0.00 0.00 0.00 0.00 0.01 0.01 0.00 0.00 0.00 0.01 0.02 0.02 0.02 0.02 0.02 0.04 0.03 0.02 0.02 0.02 0.01 0.01
0.00 0.00 0.00 0.00 0.00 0.00 0.00 0.00 0.00 0.00 0.00 0.00 0.00 0.00 0.00 0.00 0.00 0.00 0.00 0.00 0.00 0.00 0.00 0.00 0.00 0.00 0.00 0.00 0.00 0.01 0.01 0.01 0.01 0.00 0.01 0.01 0.01 0.02 0.03 0.02 0.01 0.02 0.03 0.03
0.00 0.01 0.00 0.00 0.00 0.00 0.00 0.00 0.00 0.00 0.00 0.00 0.00 0.00 0.00 0.00 0.00 0.00 0.00 0.01 0.01 0.01 0.01 0.00 0.00 0.01 0.01 0.01 0.01 0.01 0.01 0.01 0.01 0.00 0.00 0.01 0.01 0.01 0.01 0.01 0.01 0.02 0.07 0.08
0.00 0.00 0.00 0.00 0.00 0.00 0.00 0.00 0.00 0.00 0.00 0.00 0.00 0.00 0.00 0.00 0.01 0.00 0.01 0.01 0.01 0.01 0.01 0.01 0.00 0.00 0.00 0.00 0.00 0.00 0.00 0.01 0.01 0.01 0.01 0.01 0.01 0.01 0.01 0.01 0.01 0.02 0.04 0.06
0.00 0.00 0.00 0.00 0.00 0.00 0.01 0.00 0.00 0.00 0.00 0.00 0.00 0.00 0.00 0.00 0.00 0.00 0.00 0.01 0.01 0.01 0.00 0.01 0.00 0.00 0.00 0.00 0.00 0.00 0.01 0.01 0.01 0.01 0.01 0.01 0.01 0.02 0.02 0.01 0.02 0.03 0.05 0.06
0.00 0.00 0.00 0.00 0.00 0.00 0.01 0.00 0.00 0.00 0.00 0.00 0.00 0.00 0.00 0.00 0.01 0.00 0.00 0.00 0.00 0.00 0.00 0.00 0.00 0.00 0.00 0.00 0.00 0.00 0.01 0.01 0.01 0.01 0.02 0.02 0.02 0.02 0.02 0.02 0.02 0.02 0.05 0.06
0.00 0.00 0.00 0.00 0.00 0.00 0.00 0.00 0.00 0.00 0.01 0.00 0.00 0.00 0.01 0.01 0.01 0.01 0.01 0.00 0.00 0.00 0.00 0.00 0.00 0.00 0.00 0.00 0.00 0.01 0.01 0.01 0.01 0.02 0.03 0.03 0.04 0.03 0.03 0.02 0.02 0.03 0.04 0.04
0.00 0.00 0.00 0.00 0.00 0.00 0.00 0.00 0.00 0.00 0.00 0.00 0.00 0.00 0.01 0.01 0.01 0.01 0.01 0.01 0.01 0.01 0.01 0.01 0.01 0.01 0.01 0.01 0.01 0.01 0.00 0.00 0.01 0.01 0.02 0.04 0.04 0.05 0.03 0.02 0.02 0.02 0.02 0.02
0.01 0.00 0.00 0.00 0.00 0.00 0.00 0.00 0.00 0.00 0.00 0.00 0.00 0.00 0.01 0.01 0.00 0.01 0.02 0.02 0.02 0.02 0.01 0.01 0.01 0.01 0.02 0.02 0.01 0.01 0.00 0.00 0.00 0.00 0.00 0.01 0.02 0.03 0.04 0.02 0.02 0.02 0.02 0.02
0.01 0.01 0.00 0.00 0.00 0.00 0.00 0.00 0.00 0.00 0.00 0.00 0.00 0.00 0.00 0.01 0.01 0.01 0.02 0.03 0.03 0.03 0.02 0.01 0.02 0.01 0.01 0.01 0.01 0.01 0.00 0.00 0.00 0.01 0.01 0.01 0.01 0.01 0.02 0.02 0.01 0.01 0.02 0.02
0.01 0.01 0.01 0.00 0.00 0.00 0.00 0.00 0.01 0.01 0.00 0.00 0.00 0.00 0.00 0.00 0.01 0.01 0.00 0.01 0.01 0.01 0.01 0.01 0.01 0.01 0.01 0.01 0.01 0.00 0.00 0.00 0.01 0.01 0.01 0.01 0.01 0.01 0.01 0.01 0.01 0.01 0.01 0.01
0.00 0.00 0.00 0.00 0.00 0.00 0.01 0.00 0.00 0.00 0.00 0.00 0.00 0.00 0.00 0.00 0.01 0.01 0.01 0.01 0.01 0.01 0.01 0.00 0.00 0.00 0.01 0.01 0.01 0.01 0.00 0.01 0.01 0.01 0.01 0.01 0.01 0.01 0.00 0.01 0.01 0.01 0.01 0.02
0.00 0.01 0.01 0.01 0.01 0.01 0.01 0.01 0.00 0.00 0.00 0.00 0.00 0.00 0.00 0.00 0.01 0.01 0.01 0.01 0.01 0.01 0.00 0.01 0.00 0.01 0.01 0.01 0.01 0.01 0.01 0.01 0.01 0.01 0.01 0.01 0.01 0.01 0.01 0.01 0.01 0.01 0.02 0.02
MSLP
1006.49 1007.19 1007.83 1008.38 1008.84 1009.22 1009.54 1009.81 1010.05 1010.27 1010.48 1010.67 1010.84 1010.99 1011.12 1011.25 1011.37 1011.50 1011.64 1011.79 1011.96 1012.13 1012.31 1012.51 1012.74 1013.00 1013.30 1013.64 1014.00 1014.37 1014.72 1015.03 1015.28 1015.47 1015.58 1015.66 1015.70 1015.75 1015.83 1015.95 1016.12 1016.31 1016.54 1016.76
1007.31 1007.86 1008.32 1008.71 1009.04 1009.32 1009.59 1009.87 1010.15 1010.42 1010.67 1010.87 1011.02 1011.10 1011.13 1011.13 1011.13 1011.15 1011.22 1011.34 1011.52 1011.74 1012.00 1012.28 1012.58 1012.89 1013.23 1013.57 1013.93 1014.30 1014.66 1015.00 1015.30 1015.55 1015.74 1015.87 1015.97 1016.04 1016.10 1016.17 1016.26 1016.39 1016.54 1016.71
1008.04 1008.42 1008.72 1008.95 1009.16 1009.37 1009.63 1009.94 1010.27 1010.61 1010.90 1011.11 1011.21 1011.20 1011.10 1010.95 1010.80 1010.69 1010.67 1010.75 1010.94 1011.21 1011.55 1011.92 1012.30 1012.68 1013.04 1013.40 1013.76 1014.13 1014.50 1014.86 1015.21 1015.53 1015.80 1016.01 1016.16 1016.26 1016.32 1016.36 1016.40 1016.46 1016.55 1016.67
1008.61 1008.84 1008.98 1009.09 1009.21 1009.40 1009.68 1010.04 1010.46 1010.86 1011.19 1011.39 1011.43 1011.31 1011.05 1010.71 1010.38 1010.12 1009.98 1010.00 1010.18 1010.50 1010.91 1011.37 1011.84 1012.28 1012.69 1013.07 1013.44 1013.81 1014.19 1014.59 1015.00 1015.38 1015.74 1016.03 1016.25 1016.39 1016.46 1016.49 1016.49 1016.51 1016.55 1016.63
1008.98 1009.07 1009.10 1009.13 1009.21 1009.42 1009.75 1010.20 1010.70 1011.18 1011.54 1011.72 1011.68 1011.42 1010.98 1010.44 1009.90 1009.46 1009.18 1009.12 1009.27 1009.61 1010.08 1010.61 1011.16 1011.67 1012.14 1012.55 1012.94 1013.32 1013.73 1014.16 1014.62 1015.08 1015.51 1015.88 1016.17 1016.37 1016.47 1016.50 1016.49 1016.48 1016.48 1016.54
1009.14 1009.13 1009.08 1009.07 1009.16 1009.41 1009.82 1010.37 1010.97 1011.52 1011.91 1012.07 1011.94 1011.53 1010.90 1010.14 1009.39 1008.74 1008.31 1008.14 1008.23 1008.57 1009.07 1009.67 1010.28 1010.86 1011.38 1011.84 1012.26 1012.67 1013.10 1013.58 1014.09 1014.61 1015.12 1015.56 1015.92 1016.17 1016.31 1016.36 1016.35 1016.33 1016.32 1016.37
1009.12 1009.04 1008.95 1008.93 1009.05 1009.36 1009.87 1010.51 1011.20 1011.82 1012.23 1012.36 1012.14 1011.60 1010.79 1009.83 1008.87 1008.03 1007.43 1007.14 1007.16 1007.46 1007.97 1008.60 1009.27 1009.90 1010.47 1010.98 1011.43 1011.88 1012.35 1012.86 1013.41 1013.99 1014.56 1015.07 1015.49 1015.79 1015.97 1016.05 1016.06 1016.04 1016.03 1016.08
1008.98 1008.86 1008.74 1008.73 1008.90 1009.27 1009.85 1010.58 1011.34 1012.00 1012.42 1012.52 1012.23 1011.58 1010.63 1009.51 1008.37 1007.37 1006.62 1006.21 1006.14 1006.39 1006.88 1007.52 1008.21 1008.88 1009.49 1010.04 1010.53 1011.01 1011.51 1012.06 1012.65 1013.27 1013.88 1014.44 1014.90 1015.25 1015.46 1015.57 1015.60 1015.60 1015.60 1015.65
1008.83 1008.66 1008.54 1008.54 1008.73 1009.14 1009.77 1010.53 1011.32 1012.00 1012.42 1012.49 1012.16 1011.43 1010.39 1009.16 1007.91 1006.80 1005.94 1005.42 1005.27 1005.45 1005.90 1006.52 1007.21 1007.90 1008.54 1009.11 1009.64 1010.15 1010.67 1011.24 1011.85 1012.49 1013.12 1013.70 1014.20 1014.57 1014.82 1014.95 1015.01 1015.03 1015.05 1015.12
1008.73 1008.55 1008.41 1008.40 1008.59 1009.00 1009.61 1010.36 1011.13 1011.78 1012.18 1012.23 1011.87 1011.12 1010.05 1008.79 1007.50 1006.33 1005.41 1004.82 1004.60 1004.72 1005.12 1005.70 1006.36 1007.04 1007.69 1008.28 1008.82 1009.34 1009.88 1010.45 1011.06 1011.70 1012.34 1012.93 1013.43 1013.82 1014.09 1014.25 1014.33 1014.38 1014.42 1014.50
1008.79 1008.57 1008.41 1008.38 1008.52 1008.88 1009.42 1010.09 1010.78 1011.35 1011.70 1011.71 1011.34 1010.61 1009.58 1008.35 1007.10 1005.95 1005.03 1004.42 1004.16 1004.22 1004.56 1005.09 1005.71 1006.36 1006.99 1007.57 1008.11 1008.64 1009.17 1009.74 1010.33 1010.96 1011.57 1012.15 1012.64 1013.04 1013.32 1013.51 1013.62 1013.69 1013.76 1013.86
1009.00 1008.77 1008.58 1008.50 1008.56 1008.81 1009.23 1009.75 1010.30 1010.75 1011.00 1010.97 1010.61 1009.92 1008.96 1007.84 1006.68 1005.61 1004.75 1004.17 1003.89 1003.92 1004.20 1004.67 1005.23 1005.84 1006.43 1006.99 1007.52 1008.03 1008.55 1009.10 1009.67 1010.26 1010.84 1011.39 1011.87 1012.26 1012.56 1012.77 1012.91 1013.01 1013.11 1013.24
1009.36 1009.12 1008.90 1008.75 1008.72 1008.82 1009.06 1009.39 1009.74 1010.02 1010.15 1010.05 1009.69 1009.06 1008.21 1007.23 1006.21 1005.27 1004.51 1003.99 1003.73 1003.74 1003.97 1004.38 1004.88 1005.42 1005.97 1006.50 1007.01 1007.50 1008.00 1008.51 1009.05 1009.60 1010.14 1010.65 1011.11 1011.50 1011.81 1012.05 1012.23 1012.37 1012.51 1012.66
1009.78 1009.56 1009.32 1009.10 1008.95 1008.89 1008.92 1009.02 1009.14 1009.22 1009.20 1009.01 1008.63 1008.06 1007.33 1006.50 1005.65 1004.88 1004.24 1003.80 1003.59 1003.59 1003.79 1004.14 1004.58 1005.06 1005.56 1006.05 1006.52 1006.99 1007.46 1007.95 1008.45 1008.95 1009.45 1009.93 1010.37 1010.76 1011.08 1011.35 1011.58 1011.77 1011.96 1012.14
1010.19 1009.98 1009.73 1009.45 1009.19 1008.96 1008.78 1008.64 1008.52 1008.38 1008.19 1007.90 1007.50 1006.97 1006.35 1005.68 1005.01 1004.40 1003.90 1003.56 1003.40 1003.42 1003.59 1003.88 1004.26 1004.68 1005.13 1005.58 1006.02 1006.47 1006.91 1007.37 1007.83 1008.30 1008.77 1009.22 1009.64 1010.03 1010.37 1010.68 1010.96 1011.21 1011.45 1011.67
1010.47 1010.29 1010.03 1009.71 1009.34 1008.96 1008.59 1008.23 1007.88 1007.53 1007.17 1006.78 1006.34 1005.85 1005.33 1004.80 1004.29 1003.84 1003.48 1003.24 1003.14 1003.17 1003.32 1003.57 1003.89 1004.26 1004.66 1005.07 1005.49 1005.91 1006.33 1006.76 1007.20 1007.64 1008.08 1008.51 1008.92 1009.32 1009.69 1010.04 1010.37 1010.68 1010.97 1011.25
1010.55 1010.39 1010.13 1009.77 1009.33 1008.83 1008.29 1007.75 1007.21 1006.68 1006.18 1005.69 1005.22 1004.76 1004.33 1003.92 1003.55 1003.25 1003.01 1002.87 1002.82 1002.86 1003.00 1003.21 1003.48 1003.79 1004.14 1004.52 1004.91 1005.31 1005.72 1006.13 1006.56 1006.98 1007.40 1007.82 1008.24 1008.65 1009.05 1009.44 1009.82 1010.19 1010.54 1010.86
1010.39 1010.23 1009.96 1009.58 1009.08 1008.50 1007.86 1007.18 1006.50 1005.85 1005.25 1004.70 1004.22 1003.79 1003.43 1003.13 1002.89 1002.70 1002.57 1002.50 1002.49 1002.55 1002.66 1002.83 1003.05 1003.31 1003.61 1003.95 1004.32 1004.70 1005.11 1005.52 1005.93 1006.35 1006.77 1007.19 1007.62 1008.05 1008.48 1008.91 1009.34 1009.76 1010.15 1010.51
1010.01 1009.82 1009.53 1009.13 1008.60 1007.98 1007.28 1006.53 1005.79 1005.08 1004.42 1003.86 1003.38 1003.00 1002.71 1002.51 1002.37 1002.28 1002.23 1002.21 1002.23 1002.28 1002.37 1002.49 1002.65 1002.86 1003.12 1003.42 1003.76 1004.13 1004.53 1004.94 1005.36 1005.79 1006.22 1006.65 1007.09 1007.54 1008.00 1008.46 1008.93 1009.39 1009.82 1010.22
1009.48 1009.24 1008.91 1008.48 1007.94 1007.31 1006.60 1005.85 1005.10 1004.39 1003.75 1003.21 1002.77 1002.46 1002.24 1002.11 1002.05 1002.03 1002.04 1002.06 1002.08 1002.12 1002.16 1002.23 1002.34 1002.49 1002.69 1002.95 1003.26 1003.62 1004.01 1004.43 1004.87 1005.31 1005.76 1006.22 1006.68 1007.15 1007.63 1008.12 1008.61 1009.10 1009.56 1009.98
1008.89 1008.56 1008.17 1007.72 1007.18 1006.57 1005.89 1005.19 1004.50 1003.84 1003.26 1002.79 1002.42 1002.17 1002.02 1001.96 1001.96 1001.98 1002.02 1002.05 1002.06 1002.06 1002.06 1002.07 1002.11 1002.19 1002.34 1002.55 1002.83 1003.17 1003.57 1004.00 1004.45 1004.92 1005.40 1005.87 1006.36 1006.85 1007.35 1007.86 1008.37 1008.87 1009.35 1009.79
1008.32 1007.88 1007.43 1006.94 1006.42 1005.85 1005.25 1004.63 1004.03 1003.48 1002.99 1002.60 1002.31 1002.13 1002.04 1002.02 1002.05 1002.10 1002.13 1002.15 1002.13 1002.09 1002.03 1001.97 1001.94 1001.96 1002.05 1002.22 1002.47 1002.79 1003.19 1003.63 1004.10 1004.60 1005.10 1005.61 1006.11 1006.62 1007.14 1007.65 1008.17 1008.68 1009.16 1009.62
1007.81 1007.27 1006.75 1006.24 1005.74 1005.23 1004.72 1004.22 1003.73 1003.29 1002.92 1002.62 1002.41 1002.28 1002.22 1002.23 1002.26 1002.29 1002.31 1002.29 1002.22 1002.13 1002.01 1001.89 1001.80 1001.76 1001.80 1001.93 1002.15 1002.46 1002.85 1003.30 1003.79 1004.31 1004.84 1005.37 1005.90 1006.42 1006.94 1007.46 1007.98 1008.48 1008.98 1009.44
1007.37 1006.74 1006.17 1005.65 1005.18 1004.75 1004.34 1003.95 1003.59 1003.27 1003.00 1002.78 1002.62 1002.52 1002.48 1002.47 1002.47 1002.47 1002.43 1002.36 1002.25 1002.10 1001.93 1001.76 1001.62 1001.54 1001.54 1001.64 1001.84 1002.14 1002.53 1002.99 1003.50 1004.04 1004.60 1005.15 1005.69 1006.22 1006.74 1007.25 1007.76 1008.26 1008.75 1009.22
1006.97 1006.27 1005.67 1005.16 1004.74 1004.38 1004.07 1003.80 1003.56 1003.34 1003.15 1002.98 1002.85 1002.76 1002.69 1002.63 1002.58 1002.52 1002.43 1002.30 1002.14 1001.94 1001.74 1001.54 1001.38 1001.28 1001.26 1001.35 1001.54 1001.84 1002.23 1002.70 1003.23 1003.78 1004.35 1004.91 1005.46 1005.99 1006.50 1007.00 1007.49 1007.98 1008.47 1008.95
1006.52 1005.79 1005.18 1004.70 1004.34 1004.07 1003.86 1003.69 1003.54 1003.40 1003.27 1003.13 1003.00 1002.87 1002.74 1002.62 1002.50 1002.37 1002.21 1002.04 1001.84 1001.63 1001.42 1001.22 1001.06 1000.97 1000.97 1001.06 1001.27 1001.57 1001.98 1002.46 1002.99 1003.55 1004.12 1004.69 1005.23 1005.75 1006.25 1006.73 1007.21 1007.68 1008.15 1008.63
Thickness
5836 5832 5828 5835 5843 5846 5841 5835 5828 5829 5836 5828 5823 5821 5820 5820 5817 5813 5809 5806 5802 5799 5801 5800 5797 5794 5791 5787 5783 5780 5777 5774 5772 5771 5769 5768 5766 5766 5765 5764 5762 5761 5761 5760
5820 5821 5837 5843 5841 5837 5834 5827 5825 5826 5831 5828 5822 5821 5826 5823 5819 5819 5814 5810 5807 5803 5802 5800 5798 5795 5793 5788 5785 5782 5779 5777 5775 5773 5771 5770 5768 5768 5767 5766 5763 5762 5761 5761
5816 5827 5835 5831 5826 5824 5826 5826 5826 5822 5823 5827 5821 5815 5819 5824 5825 5823 5821 5818 5815 5809 5805 5802 5800 5798 5796 5792 5789 5787 5783 5780 5778 5776 5774 5772 5769 5768 5768 5766 5765 5764 5763 5762
5815 5822 5822 5821 5821 5824 5817 5833 5830 5823 5814 5815 5817 5808 5819 5823 5819 5819 5819 5820 5818 5816 5812 5808 5805 5801 5799 5797 5794 5790 5786 5783 5780 5778 5776 5772 5768 5767 5767 5767 5767 5765 5763 5762
5806 5813 5813 5813 5822 5826 5826 5831 5827 5823 5818 5816 5815 5811 5822 5825 5817 5820 5823 5824 5824 5821 5818 5813 5810 5807 5805 5802 5798 5794 5789 5786 5783 5780 5777 5773 5771 5771 5771 5769 5766 5764 5764 5763
5809 5817 5819 5821 5827 5827 5824 5819 5816 5817 5817 5798 5810 5807 5813 5827 5825 5829 5831 5830 5829 5826 5823 5819 5816 5812 5808 5805 5801 5797 5791 5786 5784 5781 5779 5775 5772 5770 5768 5766 5766 5765 5765 5764
5788 5800 5813 5821 5810 5813 5815 5805 5789 5784 5787 5795 5813 5806 5815 5833 5837 5835 5834 5834 5834 5831 5826 5821 5816 5812 5808 5805 5802 5798 5792 5787 5785 5782 5779 5776 5773 5770 5767 5767 5766 5765 5765 5764
5775 5779 5800 5811 5811 5806 5810 5813 5794 5781 5785 5800 5802 5802 5822 5837 5840 5840 5839 5838 5835 5832 5829 5824 5820 5815 5811 5807 5803 5800 5794 5789 5787 5783 5780 5777 5774 5773 5772 5769 5768 5767 5766 5765
5780 5782 5802 5809 5817 5816 5805 5810 5825 5809 5802 5797 5805 5810 5822 5832 5832 5835 5836 5835 5833 5832 5830 5826 5823 5819 5815 5811 5806 5802 5797 5791 5788 5785 5781 5777 5775 5772 5771 5768 5767 5767 5765 5765
5787 5776 5789 5799 5806 5808 5817 5817 5808 5800 5780 5779 5794 5799 5810 5817 5823 5830 5831 5831 5831 5832 5830 5827 5824 5820 5817 5814 5809 5804 5799 5793 5789 5786 5782 5779 5775 5773 5770 5768 5765 5764 5763 5761
5786 5774 5776 5785 5786 5792 5797 5801 5804 5803 5800 5787 5783 5799 5826 5823 5826 5827 5829 5831 5831 5830 5830 5827 5823 5821 5817 5814 5809 5803 5799 5794 5789 5786 5782 5779 5776 5773 5770 5767 5766 5763 5762 5759
5778 5777 5770 5780 5795 5804 5803 5803 5800 5786 5782 5791 5794 5802 5828 5828 5829 5828 5827 5828 5829 5829 5829 5826 5822 5818 5814 5810 5807 5802 5798 5794 5790 5786 5782 5777 5774 5771 5769 5767 5766 5764 5761 5758
5768 5764 5753 5757 5769 5784 5788 5796 5800 5800 5793 5789 5787 5796 5821 5823 5823 5825 5824 5823 5823 5822 5822 5820 5817 5813 5809 5807 5804 5800 5797 5793 5790 5786 5780 5775 5771 5768 5766 5766 5764 5763 5760 5756
5766 5760 5760 5760 5771 5780 5778 5785 5792 5792 5785 5785 5791 5800 5807 5812 5813 5815 5816 5817 5817 5816 5814 5812 5809 5807 5805 5802 5800 5797 5794 5792 5788 5784 5779 5773 5770 5767 5765 5763 5761 5759 5756 5752
5758 5753 5760 5770 5778 5780 5779 5781 5785 5786 5792 5790 5795 5799 5803 5808 5809 5810 5811 5811 5810 5808 5807 5806 5803 5802 5800 5798 5795 5793 5790 5788 5784 5779 5775 5770 5768 5765 5763 5760 5757 5755 5752 5749
5749 5745 5751 5754 5766 5770 5769 5777 5780 5783 5789 5791 5793 5793 5806 5808 5808 5804 5803 5803 5802 5802 5802 5802 5800 5797 5795 5793 5791 5788 5785 5782 5780 5775 5770 5767 5765 5762 5758 5756 5753 5750 5747 5744
5740 5737 5737 5742 5754 5756 5750 5768 5774 5778 5786 5788 5783 5790 5797 5794 5794 5795 5796 5796 5797 5797 5797 5796 5795 5792 5791 5789 5787 5783 5781 5778 5774 5771 5767 5762 5760 5757 5754 5752 5748 5745 5741 5738
5727 5729 5734 5739 5736 5723 5755 5777 5779 5775 5778 5786 5786 5789 5790 5789 5792 5794 5795 5792 5791 5792 5791 5790 5789 5788 5787 5786 5783 5780 5777 5773 5769 5765 5761 5757 5754 5751 5749 5746 5742 5739 5735 5732
5726 5724 5727 5730 5726 5733 5747 5762 5768 5764 5763 5778 5778 5780 5782 5785 5784 5783 5787 5788 5786 5787 5785 5785 5784 5783 5781 5779 5777 5774 5770 5767 5762 5758 5753 5751 5748 5746 5743 5739 5735 5732 5729 5725
5717 5720 5722 5722 5718 5719 5742 5760 5768 5762 5749 5770 5774 5772 5773 5775 5771 5772 5779 5780 5779 5779 5779 5778 5777 5775 5772 5771 5770 5766 5762 5758 5753 5750 5747 5745 5742 5739 5736 5732 5728 5725 5722 5718
5704 5706 5711 5715 5716 5730 5746 5755 5754 5736 5746 5763 5768 5767 5767 5768 5773 5773 5772 5771 5771 5771 5770 5770 5768 5765 5763 5763 5761 5757 5754 5749 5746 5743 5740 5737 5734 5731 5728 5724 5721 5717 5715 5712
5703 5705 5704 5711 5709 5717 5739 5744 5740 5743 5753 5757 5759 5762 5761 5763 5765 5764 5763 5762 5762 5761 5760 5760 5757 5754 5754 5754 5751 5747 5744 5742 5739 5736 5731 5728 5725 5724 5721 5716 5712 5710 5707 5704
5700 5706 5712 5712 5713 5722 5732 5735 5738 5743 5743 5747 5751 5754 5755 5754 5753 5754 5754 5753 5752 5751 5750 5750 5748 5745 5744 5743 5742 5738 5735 5734 5731 5728 5723 5720 5717 5714 5711 5708 5705 5702 5701 5700
5689 5695 5699 5699 5706 5714 5720 5725 5730 5734 5736 5740 5743 5746 5747 5746 5746 5745 5744 5743 5743 5742 5741 5741 5740 5737 5735 5734 5733 5731 5728 5726 5723 5719 5715 5711 5708 5706 5702 5700 5699 5696 5694 5692
5681 5684 5688 5689 5696 5702 5707 5713 5719 5723 5728 5731 5734 5737 5739 5738 5737 5736 5735 5734 5734 5733 5732 5733 5731 5729 5727 5725 5724 5722 5721 5718 5714 5710 5707 5704 5701 5698 5693 5689 5686 5685 5682 5680
5675 5678 5680 5685 5691 5695 5696 5703 5709 5711 5713 5719 5722 5725 5729 5730 5729 5728 5727 5726 5726 5724 5724 5723 5722 5721 5719 5717 5715 5714 5712 5710 5707 5703 5700 5698 5695 5690 5686 5681 5675 5668 5668 5665